Regional Weather Roundup
Issued by NWS

Home | Current Version | Previous Version | Text Only | Print | Product List | Glossary On
Versions: 1 2 3 4 5 6 7 8 9 10 11 12 13 14 15 16 17 18 19 20 21 22 23 24 25 26 27 28 29 30 31 32 33 34 35 36 37 38 39 40 41 42 43 44 45 46 47 48 49 50
000
ASUS43 KBIS 270510
RWRND

NORTH DAKOTA REGIONAL WEATHER ROUNDUP
NATIONAL WEATHER SERVICE BISMARCK ND
1200 AM CDT TUE SEP 27 2016

NOTE: "FAIR" INDICATES FEW OR NO CLOUDS BELOW 12,000 FEET WITH NO
SIGNIFICANT WEATHER AND/OR OBSTRUCTIONS TO VISIBILITY.


NDZ001>003-009>011-017-270600-
NORTHWEST NORTH DAKOTA

CITY           SKY/WX    TMP DP  RH WIND       PRES   REMARKS
WILLISTON      CLEAR     44  39  82 NE3       30.07F
MINOT          CLEAR     47  38  71 CALM      30.03F
MINOT AFB      CLEAR     42  37  82 NW7       30.03S
$$

NDZ018>021-031>035-040>046-270600-
SOUTHWEST NORTH DAKOTA

CITY           SKY/WX    TMP DP  RH WIND       PRES   REMARKS
BISMARCK       CLEAR     46  39  76 W6        30.07S
DICKINSON      CLOUDY    45  38  76 SW5       30.09F
GARRISON         N/A     45  38  76 NW7       30.05F
HETTINGER ARPT CLOUDY    47  40  76 CALM      30.13F
$$

NDZ004>008-012>016-024-026-027-054-270600-
NORTHEAST NORTH DAKOTA

CITY           SKY/WX    TMP DP  RH WIND       PRES   REMARKS
GRAND FORKS    CLEAR     43  38  82 W9        29.93F
GRND FRKS AFB  CLEAR     43  36  77 NW8       29.94F
DEVILS LAKE    CLEAR     46  37  71 NW10      29.99F
$$

NDZ022-023-025-028>030-036>039-047>053-270600-
SOUTHEAST NORTH DAKOTA

CITY           SKY/WX    TMP DP  RH WIND       PRES   REMARKS
FARGO          CLEAR     47  34  60 W8        29.94S
JAMESTOWN      CLEAR     44  38  79 W7        30.00F
$$





USA.gov is the U.S. government's official web portal to all federal, state and local government web resources and services.